Time,TemperatureF,DewpointF,PressureIn,WindDirection,WindDirectionDegrees,WindSpeedMPH,WindSpeedGustMPH,Humidity,HourlyPrecipIn,Conditions,Clouds,dailyrainin,SoftwareType,DateUTC
2013-03-02 00:02:00,25.0,19.0,30.10,NE,43,3.0,6.0,78,0.00,,,0.00,,2013-03-02 05:02:00,
2013-03-02 00:12:00,25.0,19.0,30.10,NE,43,3.0,6.0,78,0.00,,,0.00,,2013-03-02 05:12:00,
2013-03-02 00:22:00,25.0,19.0,30.09,North,5,2.0,8.0,79,0.00,,,0.00,,2013-03-02 05:22:00,
2013-03-02 00:32:00,25.0,19.0,30.09,ENE,70,3.0,6.0,79,0.00,,,0.00,,2013-03-02 05:32:00,
2013-03-02 00:42:00,25.0,19.0,30.09,ENE,70,3.0,6.0,79,0.00,,,0.00,,2013-03-02 05:42:00,
2013-03-02 00:52:00,25.0,19.0,30.09,ENE,61,3.0,9.0,78,0.00,,,0.00,,2013-03-02 05:52:00,
2013-03-02 01:01:00,26.0,20.0,30.09,ENE,69,1.0,9.0,78,0.00,,,0.00,,2013-03-02 06:01:00,
2013-03-02 01:11:00,26.0,20.0,30.09,ENE,69,1.0,9.0,78,0.00,,,0.00,,2013-03-02 06:11:00,
2013-03-02 01:21:00,26.0,20.0,30.09,North,10,2.0,4.0,78,0.00,,,0.00,,2013-03-02 06:21:00,
2013-03-02 01:32:00,26.0,20.0,30.09,North,9,2.0,4.0,78,0.00,,,0.00,,2013-03-02 06:32:00,
2013-03-02 01:42:00,26.0,20.0,30.09,North,9,2.0,4.0,78,0.00,,,0.00,,2013-03-02 06:42:00,
2013-03-02 01:52:00,26.0,20.0,30.09,NNE,22,0.0,4.0,78,0.00,,,0.00,,2013-03-02 06:52:00,
2013-03-02 02:01:00,26.0,21.0,30.09,NNW,346,3.0,4.0,80,0.00,,,0.00,,2013-03-02 07:01:00,
2013-03-02 02:11:00,26.0,21.0,30.09,NNE,26,5.0,8.0,80,0.00,,,0.00,,2013-03-02 07:11:00,
2013-03-02 02:21:00,26.0,21.0,30.09,NNE,26,5.0,8.0,80,0.00,,,0.00,,2013-03-02 07:21:00,
2013-03-02 02:32:00,26.0,21.0,30.09,NW,311,3.0,7.0,80,0.00,,,0.00,,2013-03-02 07:32:00,
2013-03-02 02:42:00,26.0,21.0,30.09,NW,311,3.0,7.0,80,0.00,,,0.00,,2013-03-02 07:42:00,
2013-03-02 02:52:00,26.0,21.0,30.08,NNW,346,4.0,7.0,81,0.00,,,0.00,,2013-03-02 07:52:00,
2013-03-02 03:01:00,26.0,21.0,30.08,NNW,337,4.0,6.0,81,0.00,,,0.00,,2013-03-02 08:01:00,
2013-03-02 03:11:00,26.0,21.0,30.08,NNW,337,4.0,6.0,81,0.00,,,0.00,,2013-03-02 08:11:00,
2013-03-02 03:22:00,26.0,21.0,30.08,NNW,331,3.0,8.0,81,0.00,,,0.00,,2013-03-02 08:22:00,
2013-03-02 03:32:00,26.0,21.0,30.07,NW,311,3.0,5.0,81,0.00,,,0.00,,2013-03-02 08:32:00,
2013-03-02 03:42:00,26.0,21.0,30.07,NW,311,3.0,5.0,81,0.00,,,0.00,,2013-03-02 08:42:00,
2013-03-02 03:52:00,26.0,21.0,30.07,NNW,339,3.0,7.0,80,0.00,,,0.00,,2013-03-02 08:52:00,
2013-03-02 04:02:00,26.0,21.0,30.07,NNE,15,4.0,8.0,80,0.00,,,0.00,,2013-03-02 09:02:00,
2013-03-02 04:11:00,26.0,21.0,30.07,NNW,335,5.0,8.0,80,0.00,,,0.00,,2013-03-02 09:11:00,
2013-03-02 04:22:00,26.0,21.0,30.07,NNW,335,5.0,8.0,80,0.00,,,0.00,,2013-03-02 09:22:00,
2013-03-02 04:32:00,26.0,21.0,30.07,NNW,327,3.0,8.0,80,0.00,,,0.00,,2013-03-02 09:32:00,
2013-03-02 04:42:00,26.0,21.0,30.07,NNW,327,3.0,8.0,80,0.00,,,0.00,,2013-03-02 09:42:00,
2013-03-02 04:52:00,26.0,20.0,30.07,North,5,5.0,8.0,79,0.00,,,0.00,,2013-03-02 09:52:00,
2013-03-02 05:01:00,26.0,20.0,30.07,North,5,6.0,10.0,79,0.00,,,0.00,,2013-03-02 10:01:00,
2013-03-02 05:16:00,26.0,20.0,30.07,North,5,6.0,10.0,79,0.00,,,0.00,,2013-03-02 10:16:00,
2013-03-02 05:22:00,26.0,21.0,30.07,North,360,6.0,9.0,80,0.00,,,0.00,,2013-03-02 10:22:00,
2013-03-02 05:32:00,26.0,20.0,30.07,NNE,21,8.0,10.0,78,0.00,,,0.00,,2013-03-02 10:32:00,
2013-03-02 05:43:00,26.0,20.0,30.07,NNE,21,8.0,10.0,78,0.00,,,0.00,,2013-03-02 10:43:00,
2013-03-02 05:52:00,26.0,20.0,30.07,NW,325,7.0,12.0,77,0.00,,,0.00,,2013-03-02 10:52:00,
2013-03-02 06:01:00,26.0,20.0,30.07,North,5,5.0,7.0,77,0.00,,,0.00,,2013-03-02 11:01:00,
2013-03-02 06:11:00,26.0,20.0,30.07,North,5,5.0,7.0,77,0.00,,,0.00,,2013-03-02 11:11:00,
2013-03-02 06:21:00,26.0,20.0,30.07,WNW,299,5.0,8.0,78,0.00,,,0.00,,2013-03-02 11:21:00,
2013-03-02 06:32:00,26.0,19.0,30.07,NNE,12,5.0,8.0,76,0.00,,,0.00,,2013-03-02 11:32:00,
2013-03-02 06:42:00,26.0,19.0,30.07,NNE,12,5.0,8.0,76,0.00,,,0.00,,2013-03-02 11:42:00,
2013-03-02 06:52:00,26.0,20.0,30.07,North,5,3.0,10.0,78,0.00,,,0.00,,2013-03-02 11:52:00,
2013-03-02 07:02:00,26.0,20.0,30.07,NW,322,4.0,9.0,78,0.00,,,0.00,,2013-03-02 12:02:00,
2013-03-02 07:11:00,26.0,20.0,30.07,NW,322,4.0,9.0,78,0.00,,,0.00,,2013-03-02 12:11:00,
2013-03-02 07:22:00,25.0,20.0,30.08,NW,317,4.0,10.0,80,0.00,,,0.00,,2013-03-02 12:22:00,
2013-03-02 07:33:00,25.0,20.0,30.08,North,5,5.0,8.0,80,0.00,,,0.00,,2013-03-02 12:33:00,
2013-03-02 07:43:00,25.0,20.0,30.08,North,5,5.0,8.0,80,0.00,,,0.00,,2013-03-02 12:43:00,
2013-03-02 07:53:00,25.0,20.0,30.08,North,360,6.0,11.0,80,0.00,,,0.00,,2013-03-02 12:53:00,
2013-03-02 08:01:00,25.0,20.0,30.09,NNW,337,3.0,11.0,80,0.00,,,0.00,,2013-03-02 13:01:00,
2013-03-02 08:11:00,25.0,20.0,30.09,NNW,337,3.0,11.0,80,0.00,,,0.00,,2013-03-02 13:11:00,
2013-03-02 08:22:00,25.0,19.0,30.08,NNW,339,3.0,8.0,78,0.00,,,0.00,,2013-03-02 13:22:00,
2013-03-02 08:32:00,26.0,20.0,30.09,NNW,342,5.0,8.0,78,0.00,,,0.00,,2013-03-02 13:32:00,
2013-03-02 08:42:00,26.0,20.0,30.09,NNW,342,5.0,8.0,78,0.00,,,0.00,,2013-03-02 13:42:00,
2013-03-02 08:52:00,26.0,20.0,30.09,NNW,338,4.0,8.0,78,0.00,,,0.00,,2013-03-02 13:52:00,
2013-03-02 09:01:00,26.0,20.0,30.09,NNW,346,5.0,14.0,77,0.00,,,0.00,,2013-03-02 14:01:00,
2013-03-02 09:11:00,26.0,20.0,30.09,NNW,346,5.0,14.0,77,0.00,,,0.00,,2013-03-02 14:11:00,
2013-03-02 09:22:00,25.0,19.0,30.09,North,350,6.0,11.0,78,0.00,,,0.00,,2013-03-02 14:22:00,
2013-03-02 09:32:00,26.0,19.0,30.09,North,350,6.0,11.0,76,0.00,,,0.00,,2013-03-02 14:32:00,
2013-03-02 09:42:00,26.0,19.0,30.09,North,350,6.0,11.0,76,0.00,,,0.00,,2013-03-02 14:42:00,
2013-03-02 09:52:00,26.0,19.0,30.09,NNE,32,5.0,12.0,76,0.00,,,0.00,,2013-03-02 14:52:00,
2013-03-02 10:02:00,27.0,20.0,30.09,NW,317,5.0,10.0,75,0.00,,,0.00,,2013-03-02 15:02:00,
2013-03-02 10:11:00,27.0,20.0,30.09,NW,317,5.0,10.0,75,0.00,,,0.00,,2013-03-02 15:11:00,
2013-03-02 10:22:00,27.0,20.0,30.09,NW,318,5.0,12.0,73,0.00,,,0.00,,2013-03-02 15:22:00,
2013-03-02 10:32:00,28.0,20.0,30.09,NNE,24,7.0,13.0,72,0.00,,,0.00,,2013-03-02 15:32:00,
2013-03-02 10:42:00,28.0,20.0,30.09,NNE,24,7.0,13.0,72,0.00,,,0.00,,2013-03-02 15:42:00,
2013-03-02 10:52:00,28.0,19.0,30.09,NW,319,7.0,14.0,69,0.00,,,0.00,,2013-03-02 15:52:00,
2013-03-02 11:02:00,28.0,18.0,30.09,NNW,336,9.0,16.0,67,0.00,,,0.00,,2013-03-02 16:02:00,
2013-03-02 11:11:00,28.0,18.0,30.09,NNW,336,9.0,16.0,67,0.00,,,0.00,,2013-03-02 16:11:00,
2013-03-02 11:21:00,28.0,18.0,30.09,NNE,21,6.0,17.0,65,0.00,,,0.00,,2013-03-02 16:21:00,
2013-03-02 11:32:00,29.0,19.0,30.08,NNE,33,5.0,11.0,66,0.00,,,0.00,,2013-03-02 16:32:00,
2013-03-02 11:42:00,29.0,19.0,30.08,NNE,33,5.0,11.0,66,0.00,,,0.00,,2013-03-02 16:42:00,
2013-03-02 11:52:00,28.0,18.0,30.08,NNW,332,8.0,16.0,65,0.00,,,0.00,,2013-03-02 16:52:00,
2013-03-02 12:01:00,29.0,19.0,30.08,North,349,9.0,12.0,65,0.00,,,0.00,,2013-03-02 17:01:00,
2013-03-02 12:11:00,29.0,19.0,30.08,North,349,9.0,12.0,65,0.00,,,0.00,,2013-03-02 17:11:00,
2013-03-02 12:21:00,29.0,18.0,30.08,NNE,28,5.0,14.0,64,0.00,,,0.00,,2013-03-02 17:21:00,
2013-03-02 12:32:00,29.0,18.0,30.08,NW,326,9.0,17.0,63,0.00,,,0.00,,2013-03-02 17:32:00,
2013-03-02 12:42:00,29.0,18.0,30.08,NW,326,9.0,17.0,63,0.00,,,0.00,,2013-03-02 17:42:00,
2013-03-02 12:52:00,29.0,18.0,30.08,North,355,8.0,15.0,64,0.00,,,0.00,,2013-03-02 17:52:00,
2013-03-02 13:02:00,29.0,18.0,30.07,NNW,344,11.0,15.0,64,0.00,,,0.00,,2013-03-02 18:02:00,
2013-03-02 13:11:00,29.0,18.0,30.07,NNW,344,11.0,15.0,64,0.00,,,0.00,,2013-03-02 18:11:00,
2013-03-02 13:22:00,30.0,19.0,30.07,NNW,346,9.0,14.0,64,0.00,,,0.00,,2013-03-02 18:22:00,
2013-03-02 13:32:00,30.0,19.0,30.06,NW,313,6.0,12.0,63,0.00,,,0.00,,2013-03-02 18:32:00,
2013-03-02 13:42:00,30.0,19.0,30.06,NW,313,6.0,12.0,63,0.00,,,0.00,,2013-03-02 18:42:00,
2013-03-02 13:52:00,30.0,19.0,30.06,NNE,12,9.0,14.0,63,0.00,,,0.00,,2013-03-02 18:52:00,
2013-03-02 14:01:00,31.0,20.0,30.05,NW,315,9.0,14.0,63,0.00,,,0.00,,2013-03-02 19:01:00,
2013-03-02 14:12:00,31.0,20.0,30.05,NW,315,9.0,14.0,63,0.00,,,0.00,,2013-03-02 19:12:00,
2013-03-02 14:22:00,30.0,19.0,30.05,NW,306,5.0,13.0,62,0.00,,,0.00,,2013-03-02 19:22:00,
2013-03-02 14:32:00,30.0,19.0,30.05,NW,317,6.0,11.0,64,0.00,,,0.00,,2013-03-02 19:32:00,
2013-03-02 14:42:00,30.0,19.0,30.05,NW,317,6.0,11.0,64,0.00,,,0.00,,2013-03-02 19:42:00,
2013-03-02 14:52:00,30.0,19.0,30.04,NNW,331,4.0,10.0,64,0.00,,,0.00,,2013-03-02 19:52:00,
2013-03-02 15:01:00,31.0,21.0,30.04,WNW,298,6.0,12.0,66,0.00,,,0.00,,2013-03-02 20:01:00,
2013-03-02 15:11:00,31.0,21.0,30.04,WNW,298,6.0,12.0,66,0.00,,,0.00,,2013-03-02 20:11:00,
2013-03-02 15:22:00,31.0,20.0,30.04,NNE,17,7.0,13.0,64,0.00,,,0.00,,2013-03-02 20:22:00,
2013-03-02 15:32:00,31.0,20.0,30.04,North,349,6.0,16.0,63,0.00,,,0.00,,2013-03-02 20:32:00,
2013-03-02 15:42:00,31.0,20.0,30.04,North,349,6.0,16.0,63,0.00,,,0.00,,2013-03-02 20:42:00,
2013-03-02 15:53:00,32.0,20.0,30.04,NNW,333,7.0,16.0,62,0.00,,,0.00,,2013-03-02 20:53:00,
2013-03-02 16:02:00,32.0,21.0,30.03,North,355,9.0,15.0,63,0.00,,,0.00,,2013-03-02 21:02:00,
2013-03-02 16:11:00,32.0,21.0,30.03,North,355,9.0,15.0,63,0.00,,,0.00,,2013-03-02 21:11:00,
2013-03-02 16:22:00,31.0,22.0,30.04,NW,321,7.0,13.0,68,0.00,,,0.00,,2013-03-02 21:22:00,
2013-03-02 16:32:00,30.0,21.0,30.04,NW,325,8.0,13.0,68,0.00,,,0.00,,2013-03-02 21:32:00,
2013-03-02 16:42:00,30.0,21.0,30.04,NW,325,8.0,13.0,68,0.00,,,0.00,,2013-03-02 21:42:00,
2013-03-02 16:52:00,30.0,20.0,30.04,WNW,301,6.0,12.0,67,0.00,,,0.00,,2013-03-02 21:52:00,
2013-03-02 17:02:00,30.0,21.0,30.04,West,272,5.0,11.0,68,0.00,,,0.00,,2013-03-02 22:02:00,
2013-03-02 17:11:00,30.0,21.0,30.04,West,272,5.0,11.0,68,0.00,,,0.00,,2013-03-02 22:11:00,
2013-03-02 17:22:00,30.0,20.0,30.05,WNW,292,7.0,11.0,67,0.00,,,0.00,,2013-03-02 22:22:00,
2013-03-02 17:32:00,30.0,22.0,30.05,NW,325,7.0,13.0,71,0.00,,,0.00,,2013-03-02 22:32:00,
2013-03-02 17:42:00,30.0,22.0,30.05,NW,325,7.0,13.0,71,0.00,,,0.00,,2013-03-02 22:42:00,
2013-03-02 17:52:00,29.0,21.0,30.05,WNW,298,6.0,12.0,71,0.00,,,0.00,,2013-03-02 22:52:00,
2013-03-02 18:01:00,29.0,20.0,30.05,NNW,342,8.0,13.0,69,0.00,,,0.00,,2013-03-02 23:01:00,
2013-03-02 18:11:00,29.0,20.0,30.06,WNW,289,10.0,14.0,70,0.00,,,0.00,,2013-03-02 23:11:00,
2013-03-02 18:22:00,29.0,20.0,30.06,WNW,289,10.0,14.0,70,0.00,,,0.00,,2013-03-02 23:22:00,
2013-03-02 18:32:00,29.0,20.0,30.06,WNW,299,7.0,13.0,70,0.00,,,0.00,,2013-03-02 23:32:00,
2013-03-02 18:42:00,29.0,20.0,30.06,WNW,299,7.0,13.0,70,0.00,,,0.00,,2013-03-02 23:42:00,
2013-03-02 18:52:00,28.0,21.0,30.06,WNW,297,10.0,17.0,74,0.00,,,0.00,,2013-03-02 23:52:00,
2013-03-02 19:02:00,28.0,21.0,30.07,NW,305,8.0,16.0,74,0.00,,,0.00,,2013-03-03 00:02:00,
2013-03-02 19:11:00,28.0,21.0,30.07,NW,305,8.0,16.0,74,0.00,,,0.00,,2013-03-03 00:11:00,
2013-03-02 19:22:00,28.0,21.0,30.07,West,273,6.0,13.0,76,0.00,,,0.00,,2013-03-03 00:22:00,
2013-03-02 19:32:00,28.0,21.0,30.07,NW,310,8.0,14.0,74,0.00,,,0.00,,2013-03-03 00:32:00,
2013-03-02 19:42:00,28.0,21.0,30.07,NW,310,8.0,14.0,74,0.00,,,0.00,,2013-03-03 00:42:00,
2013-03-02 19:52:00,28.0,20.0,30.07,West,262,9.0,18.0,73,0.00,,,0.00,,2013-03-03 00:52:00,
2013-03-02 20:01:00,27.0,20.0,30.07,West,281,11.0,14.0,73,0.00,,,0.00,,2013-03-03 01:01:00,
2013-03-02 20:11:00,27.0,20.0,30.07,West,281,11.0,14.0,73,0.00,,,0.00,,2013-03-03 01:11:00,
2013-03-02 20:21:00,27.0,20.0,30.07,NW,311,8.0,14.0,73,0.00,,,0.00,,2013-03-03 01:21:00,
2013-03-02 20:32:00,27.0,20.0,30.07,WNW,303,7.0,16.0,73,0.00,,,0.00,,2013-03-03 01:32:00,
2013-03-02 20:42:00,27.0,20.0,30.07,WNW,303,7.0,16.0,73,0.00,,,0.00,,2013-03-03 01:42:00,
2013-03-02 20:52:00,27.0,19.0,30.07,NW,325,6.0,18.0,71,0.00,,,0.00,,2013-03-03 01:52:00,
2013-03-02 21:01:00,27.0,19.0,30.07,NW,313,6.0,12.0,72,0.00,,,0.00,,2013-03-03 02:01:00,
2013-03-02 21:11:00,27.0,19.0,30.07,NW,313,6.0,12.0,72,0.00,,,0.00,,2013-03-03 02:11:00,
2013-03-02 21:21:00,27.0,19.0,30.07,North,355,8.0,13.0,70,0.00,,,0.00,,2013-03-03 02:21:00,
2013-03-02 21:32:00,27.0,19.0,30.08,NNW,331,7.0,12.0,71,0.00,,,0.00,,2013-03-03 02:32:00,
2013-03-02 21:42:00,27.0,19.0,30.08,NNW,331,7.0,12.0,71,0.00,,,0.00,,2013-03-03 02:42:00,
2013-03-02 21:52:00,27.0,19.0,30.08,NNW,343,5.0,10.0,71,0.00,,,0.00,,2013-03-03 02:52:00,
2013-03-02 22:01:00,27.0,19.0,30.08,North,355,7.0,12.0,72,0.00,,,0.00,,2013-03-03 03:01:00,
2013-03-02 22:11:00,27.0,19.0,30.08,North,355,7.0,12.0,72,0.00,,,0.00,,2013-03-03 03:11:00,
2013-03-02 22:21:00,27.0,19.0,30.08,NNW,337,5.0,11.0,71,0.00,,,0.00,,2013-03-03 03:21:00,
2013-03-02 22:32:00,27.0,19.0,30.08,NW,323,2.0,7.0,72,0.00,,,0.00,,2013-03-03 03:32:00,
2013-03-02 22:42:00,27.0,19.0,30.08,NW,323,2.0,7.0,72,0.00,,,0.00,,2013-03-03 03:42:00,
2013-03-02 22:52:00,27.0,19.0,30.07,NNE,26,4.0,11.0,72,0.00,,,0.00,,2013-03-03 03:52:00,
2013-03-02 23:01:00,26.0,19.0,30.08,NNW,342,3.0,5.0,73,0.00,,,0.00,,2013-03-03 04:01:00,
2013-03-02 23:11:00,26.0,19.0,30.08,NNW,342,3.0,5.0,73,0.00,,,0.00,,2013-03-03 04:11:00,
2013-03-02 23:21:00,26.0,19.0,30.08,NNW,329,2.0,5.0,74,0.00,,,0.00,,2013-03-03 04:21:00,
2013-03-02 23:32:00,26.0,19.0,30.07,NNW,327,3.0,6.0,74,0.00,,,0.00,,2013-03-03 04:32:00,
2013-03-02 23:42:00,26.0,19.0,30.07,NNW,327,3.0,6.0,74,0.00,,,0.00,,2013-03-03 04:42:00,
2013-03-02 23:52:00,26.0,19.0,30.07,North,355,3.0,6.0,74,0.00,,,0.00,,2013-03-03 04:52:00,